| time (UTC) | temp F | wind direction | speed MPH | gust MPH | rain 1hr in | rain 24hr in | rain mn in | humidity % | barometer mb |
| 20260507040635 | 62 | 172 | 0.0 | 0.0 | 0.00 | 0.00 | 0.00 | 85 | 1018.4 |
| 20260507035643 | 62 | 172 | 0.0 | 0.0 | 0.00 | 0.00 | 0.00 | 84 | 1018.4 |
| 20260507032432 | 63 | 172 | 0.0 | 0.0 | 0.00 | 0.00 | 0.00 | 83 | 1018.1 |
| 20260507031413 | 63 | 172 | 0.0 | 0.0 | 0.00 | 0.00 | 0.00 | 83 | 1018.1 |
| 20260507024101 | 64 | 172 | 0.0 | 0.0 | 0.00 | 0.00 | 0.00 | 79 | 1017.8 |
| 20260507021917 | 66 | 109 | 0.0 | 0.0 | 0.00 | 0.00 | 0.00 | 76 | 1017.7 |
| 20260507020931 | 67 | 119 | 0.0 | 0.0 | 0.00 | 0.00 | 0.00 | 75 | 1017.7 |
| 20260507015948 | 67 | 90 | 0.0 | 0.0 | 0.00 | 0.00 | 0.00 | 72 | 1017.6 |
| 20260507014943 | 68 | 113 | 0.0 | 0.0 | 0.00 | 0.00 | 0.00 | 70 | 1017.5 |
| 20260507012808 | 68 | 116 | 0.0 | 0.0 | 0.00 | 0.00 | 0.00 | 65 | 1017.5 |
| 20260507011744 | 68 | 104 | 0.0 | 0.0 | 0.00 | 0.00 | 0.00 | 66 | 1017.5 |
| 20260507010725 | 68 | 159 | 0.0 | 0.0 | 0.00 | 0.00 | 0.00 | 65 | 1017.4 |
| 20260507005707 | 68 | 91 | 0.0 | 0.0 | 0.00 | 0.00 | 0.00 | 68 | 1017.4 |
| 20260507004647 | 68 | 91 | 0.0 | 0.0 | 0.00 | 0.00 | 0.00 | 67 | 1017.4 |
| 20260507003639 | 69 | 127 | 0.0 | 0.0 | 0.00 | 0.00 | 0.00 | 69 | 1017.4 |
| 20260507002630 | 69 | 175 | 0.0 | 0.0 | 0.00 | 0.00 | 0.00 | 67 | 1017.4 |
| 20260507001641 | 69 | 100 | 0.0 | 0.0 | 0.00 | 0.00 | 0.00 | 68 | 1017.3 |
| 20260506235515 | 70 | 128 | 0.0 | 1.0 | 0.00 | 0.00 | 0.00 | 66 | 1017.1 |
| 20260506232153 | 72 | 117 | 0.0 | 0.0 | 0.00 | 0.00 | 0.00 | 62 | 1017.2 |
| 20260506231148 | 72 | 151 | 0.0 | 4.0 | 0.00 | 0.00 | 0.00 | 63 | 1017.2 |
| 20260506230152 | 72 | 89 | 0.0 | 0.0 | 0.00 | 0.00 | 0.00 | 63 | 1017.3 |
| 20260506225126 | 72 | 147 | 0.0 | 5.0 | 0.00 | 0.00 | 0.00 | 63 | 1017.4 |
| 20260506224131 | 72 | 98 | 0.0 | 0.0 | 0.00 | 0.00 | 0.00 | 62 | 1017.4 |
| 20260506223111 | 72 | 150 | 0.0 | 0.0 | 0.00 | 0.00 | 0.00 | 62 | 1017.5 |
| 20260506222134 | 71 | 130 | 0.0 | 0.0 | 0.00 | 0.00 | 0.00 | 64 | 1017.5 |
| 20260506221143 | 71 | 222 | 0.0 | 0.0 | 0.00 | 0.00 | 0.00 | 64 | 1017.6 |
| 20260506220108 | 71 | 146 | 0.0 | 0.0 | 0.00 | 0.00 | 0.00 | 64 | 1017.7 |
| 20260506215102 | 70 | 123 | 0.0 | 0.0 | 0.00 | 0.00 | 0.00 | 65 | 1017.7 |
| 20260506214026 | 71 | 119 | 0.0 | 4.0 | 0.00 | 0.00 | 0.00 | 64 | 1017.7 |
| 20260506213037 | 71 | 114 | 0.0 | 5.0 | 0.00 | 0.00 | 0.00 | 64 | 1017.8 |
| 20260506210858 | 71 | 95 | 0.0 | 7.0 | 0.00 | 0.00 | 0.00 | 64 | 1018.0 |
| 20260506205822 | 71 | 119 | 0.0 | 0.0 | 0.00 | 0.00 | 0.00 | 65 | 1018.0 |
| 20260506204750 | 71 | 95 | 0.0 | 7.0 | 0.00 | 0.00 | 0.00 | 64 | 1018.1 |
| 20260506203725 | 70 | 83 | 0.0 | 0.0 | 0.00 | 0.00 | 0.00 | 64 | 1018.1 |
| 20260506200350 | 69 | 129 | 0.0 | 0.0 | 0.00 | 0.00 | 0.00 | 65 | 1018.3 |
| 20260506195345 | 70 | 114 | 0.0 | 3.0 | 0.00 | 0.00 | 0.00 | 65 | 1018.5 |
| 20260506194323 | 70 | 76 | 0.0 | 2.0 | 0.00 | 0.00 | 0.00 | 66 | 1018.6 |
| 20260506193305 | 70 | 131 | 0.0 | 6.0 | 0.00 | 0.00 | 0.00 | 64 | 1018.7 |
| 20260506192241 | 70 | 82 | 0.0 | 8.0 | 0.00 | 0.00 | 0.00 | 64 | 1018.8 |
| 20260506191216 | 71 | 100 | 0.0 | 2.0 | 0.00 | 0.00 | 0.00 | 64 | 1018.7 |
| 20260506190230 | 70 | 58 | 0.0 | 0.0 | 0.00 | 0.00 | 0.00 | 64 | 1018.7 |
| 20260506185239 | 70 | 113 | 0.0 | 0.0 | 0.00 | 0.00 | 0.00 | 65 | 1018.7 |
| 20260506183110 | 69 | 78 | 0.0 | 0.0 | 0.00 | 0.00 | 0.00 | 65 | 1019.0 |
| 20260506182040 | 69 | 69 | 0.0 | 0.0 | 0.00 | 0.00 | 0.00 | 65 | 1019.1 |
| 20260506181038 | 69 | 128 | 0.0 | 0.0 | 0.00 | 0.00 | 0.00 | 65 | 1019.1 |
| 20260506180003 | 68 | 170 | 0.0 | 0.0 | 0.00 | 0.00 | 0.00 | 66 | 1019.3 |
| 20260506175017 | 68 | 109 | 0.0 | 0.0 | 0.00 | 0.00 | 0.00 | 66 | 1019.4 |
| 20260506173943 | 69 | 61 | 0.0 | 0.0 | 0.00 | 0.01 | 0.00 | 64 | 1019.4 |
| 20260506172930 | 69 | 150 | 0.0 | 0.0 | 0.00 | 0.01 | 0.00 | 65 | 1019.4 |
| 20260506171947 | 69 | 154 | 0.0 | 0.0 | 0.00 | 0.01 | 0.00 | 65 | 1019.4 |
| 20260506170911 | 69 | 101 | 0.0 | 1.0 | 0.00 | 0.01 | 0.00 | 65 | 1019.4 |
| 20260506165928 | 68 | 223 | 0.0 | 0.0 | 0.00 | 0.01 | 0.00 | 62 | 1019.4 |
| 20260506164903 | 68 | 260 | 0.0 | 0.0 | 0.00 | 0.01 | 0.00 | 66 | 1019.5 |
| 20260506163900 | 67 | 234 | 0.0 | 0.0 | 0.00 | 0.01 | 0.00 | 66 | 1019.5 |
| 20260506160546 | 65 | 121 | 0.0 | 0.0 | 0.00 | 0.01 | 0.00 | 71 | 1019.5 |
| 20260506155559 | 65 | 178 | 0.0 | 0.0 | 0.00 | 0.01 | 0.00 | 72 | 1019.4 |
| 20260506154532 | 65 | 182 | 0.0 | 0.0 | 0.00 | 0.01 | 0.00 | 73 | 1019.4 |
| 20260506153513 | 64 | 5 | 0.0 | 0.0 | 0.00 | 0.01 | 0.00 | 74 | 1019.5 |
| 20260506150157 | 63 | 5 | 0.0 | 0.0 | 0.00 | 0.01 | 0.00 | 74 | 1019.4 |
| 20260506145204 | 62 | 13 | 0.0 | 0.0 | 0.00 | 0.01 | 0.00 | 75 | 1019.4 |
| 20260506144224 | 61 | 14 | 0.0 | 0.0 | 0.00 | 0.01 | 0.00 | 80 | 1019.3 |
| 20260506143201 | 60 | 105 | 0.0 | 0.0 | 0.00 | 0.01 | 0.00 | 87 | 1019.2 |
| 20260506142128 | 57 | 105 | 0.0 | 0.0 | 0.00 | 0.01 | 0.00 | 91 | 1019.1 |
| 20260506135916 | 54 | 105 | 0.0 | 0.0 | 0.00 | 0.01 | 0.00 | 95 | 1019.1 |
| 20260506133656 | 51 | 103 | 0.0 | 0.0 | 0.00 | 0.01 | 0.00 | 91 | 1018.9 |
| 20260506132620 | 51 | 103 | 0.0 | 0.0 | 0.00 | 0.03 | 0.00 | 92 | 1018.8 |
| 20260506131621 | 51 | 102 | 0.0 | 0.0 | 0.00 | 0.04 | 0.00 | 91 | 1018.7 |
| 20260506124336 | 52 | 103 | 0.0 | 0.0 | 0.00 | 0.08 | 0.00 | 90 | 1018.5 |
| 20260506122221 | 51 | 103 | 0.0 | 0.0 | 0.00 | 0.08 | 0.00 | 91 | 1018.4 |
| 20260506121228 | 51 | 103 | 0.0 | 0.0 | 0.00 | 0.11 | 0.00 | 90 | 1018.4 |
| 20260506120241 | 51 | 103 | 0.0 | 0.0 | 0.00 | 0.18 | 0.00 | 90 | 1018.5 |
| 20260506115231 | 52 | 103 | 0.0 | 0.0 | 0.00 | 0.24 | 0.00 | 89 | 1018.5 |
| 20260506114254 | 52 | 103 | 0.0 | 0.0 | 0.00 | 0.24 | 0.00 | 89 | 1018.4 |
| 20260506112123 | 52 | 103 | 0.0 | 0.0 | 0.00 | 0.25 | 0.00 | 89 | 1018.3 |
| 20260506104815 | 53 | 103 | 0.0 | 0.0 | 0.00 | 0.26 | 0.00 | 89 | 1018.3 |
| 20260506103803 | 53 | 103 | 0.0 | 0.0 | 0.00 | 0.26 | 0.00 | 89 | 1018.3 |
| 20260506102824 | 53 | 103 | 0.0 | 0.0 | 0.00 | 0.26 | 0.00 | 89 | 1018.2 |
| 20260506095559 | 53 | 103 | 0.0 | 0.0 | 0.00 | 0.26 | 0.00 | 87 | 1018.1 |
| 20260506094620 | 54 | 102 | 0.0 | 0.0 | 0.00 | 0.26 | 0.00 | 87 | 1018.1 |
| 20260506092446 | 54 | 103 | 0.0 | 0.0 | 0.00 | 0.27 | 0.00 | 87 | 1018.2 |
| 20260506090315 | 54 | 103 | 0.0 | 0.0 | 0.00 | 0.27 | 0.00 | 87 | 1018.4 |
| 20260506085308 | 54 | 103 | 0.0 | 0.0 | 0.00 | 0.27 | 0.00 | 87 | 1018.5 |
| 20260506084305 | 54 | 103 | 0.0 | 0.0 | 0.00 | 0.27 | 0.00 | 87 | 1018.5 |
| 20260506083319 | 54 | 103 | 0.0 | 0.0 | 0.00 | 0.27 | 0.00 | 86 | 1018.6 |
| 20260506082339 | 55 | 103 | 0.0 | 0.0 | 0.00 | 0.27 | 0.00 | 85 | 1018.7 |
| 20260506072935 | 56 | 103 | 0.0 | 0.0 | 0.00 | 0.27 | 0.00 | 83 | 1018.9 |
| 20260506071930 | 57 | 103 | 0.0 | 0.0 | 0.00 | 0.27 | 0.00 | 83 | 1019.0 |
| 20260506070942 | 57 | 103 | 0.0 | 0.0 | 0.00 | 0.27 | 0.00 | 83 | 1018.9 |
| 20260506061657 | 57 | 103 | 0.0 | 0.0 | 0.00 | 0.27 | 0.27 | 84 | 1018.5 |
| 20260506051019 | 58 | 103 | 0.0 | 0.0 | 0.00 | 0.27 | 0.27 | 79 | 1018.4 |
| 20260506044959 | 59 | 103 | 0.0 | 0.0 | 0.00 | 0.27 | 0.27 | 79 | 1018.3 |
| 20260506042844 | 59 | 103 | 0.0 | 0.0 | 0.00 | 0.27 | 0.27 | 78 | 1018.0 |
| 20260506041831 | 59 | 103 | 0.0 | 0.0 | 0.00 | 0.27 | 0.27 | 78 | 1018.0 |